This demonstration page uses our WeatherBlox Daily Observations layout. Learn more.

Left ArrowRight Arrow

Hourly Observations for February 12, 2021

Temp ( °F °C ) Dew Point ( °F °C ) Humidity (%) Winds ( mph kmh ) Pressure ( in mb ) Visibility ( mi km ) Precip ( " mm )
12:15 am 00:15 Cloudy -2 -19 -6 -21.1 84 84 N N/A 30.73 1041 10 16 N/A
12:35 am 00:35 Cloudy -1 -18.5 -5 -20.5 84 84 N N/A 30.73 1041 10 16 N/A
12:55 am 00:55 Cloudy N/A -4 -19.8 83 83 N N/A 30.73 1041 10 16 N/A
1:15 am 01:15 Cloudy 1 -17.5 -3 -19.7 83 83 NNE 3 6 30.72 1040 10 16 N/A
1:35 am 01:35 Cloudy 1 -17.3 -3 -19.5 83 83 NNE 6 9 30.72 1040 10 16 N/A
1:55 am 01:55 Cloudy 1 -17.3 -3 -19.5 83 83 NNE 6 9 30.73 1040 10 16 N/A
2:15 am 02:15 Cloudy 1 -17.1 -3 -19.4 82 82 NNE 7 11 30.72 1040 10 16 N/A
2:35 am 02:35 Cloudy 1 -17.1 -3 -19.5 82 82 NE 6 9 30.72 1040 10 16 N/A
2:55 am 02:55 Cloudy 1 -17.5 -4 -19.9 82 82 NE 5 7 30.72 1040 10 16 N/A
3:15 am 03:15 Cloudy -1 -18.2 -5 -20.5 82 82 NE 5 7 30.73 1040 10 16 N/A
3:35 am 03:35 Cloudy -1 -18.5 -5 -20.8 82 82 NE 8 13 30.72 1040 10 16 N/A
3:55 am 03:55 Cloudy -1 -18.4 -6 -21 80 80 NE 8 13 30.72 1040 10 16 N/A
4:15 am 04:15 Cloudy -1 -18.5 -6 -21.2 79 79 NE 8 13 30.72 1040 10 16 N/A
4:35 am 04:35 Cloudy -1 -18.5 -6 -21 81 81 NNE 7 11 30.71 1040 10 16 N/A
4:55 am 04:55 Cloudy -1 -18.6 -6 -21 82 82 NNE 9 15 30.71 1040 10 16 N/A
5:15 am 05:15 Cloudy -1 -18.6 -6 -21 82 82 NNE 9 15 30.71 1040 10 16 N/A
5:35 am 05:35 Cloudy -1 -18.6 -6 -21.1 81 81 NNE 16 26 30.70 1040 10 16 N/A
5:55 am 05:55 Cloudy -2 -18.8 -6 -21.3 81 81 NE 14 22 30.70 1040 10 16 N/A
6:15 am 06:15 Cloudy -2 -18.8 -6 -21.3 81 81 NE 13 20 30.71 1040 10 16 N/A
6:35 am 06:35 Cloudy -1 -18.5 -6 -21 81 81 NE 13 20 30.72 1040 10 16 N/A
6:55 am 06:55 Cloudy -1 -18.5 -6 -21.2 79 79 NE 10 17 30.72 1040 10 16 N/A
7:15 am 07:15 Cloudy -1 -18.5 -6 -21.2 79 79 NE 10 17 30.72 1040 10 16 N/A
7:35 am 07:35 Cloudy -1 -18.6 -7 -21.8 76 76 NE 14 22 30.72 1040 10 16 N/A
7:55 am 07:55 Cloudy -2 -18.7 -7 -21.8 77 77 NE 10 17 30.71 1040 10 16 N/A
8:15 am 08:15 Cloudy -2 -18.7 -7 -21.7 77 77 NE 12 19 30.71 1040 10 16 N/A
8:35 am 08:35 Cloudy -1 -18.6 -7 -21.9 75 75 ENE 10 17 30.74 1041 10 16 N/A
8:55 am 08:55 Cloudy -1 -18.5 -7 -21.7 76 76 NE 10 17 30.75 1041 10 16 N/A
9:15 am 09:15 Cloudy -1 -18.5 -7 -21.8 75 75 ENE 9 15 30.76 1042 10 16 N/A
9:35 am 09:35 Cloudy with Haze -1 -18.5 -7 -21.6 77 77 ENE 9 15 30.75 1041 3 5 N/A
9:55 am 09:55 Cloudy -1 -18.3 -7 -21.9 74 74 NE 10 17 30.76 1042 10 16 N/A
10:15 am 10:15 Cloudy with Haze -1 -18.5 -8 -22.2 73 73 E 7 11 30.77 1042 4 6 N/A
10:35 am 10:35 Cloudy with Light Snow -1 -18.5 -8 -22.3 72 72 E 8 13 30.77 1042 3 5 N/A
10:55 am 10:55 Cloudy with Light Snow -1 -18.5 -8 -22.2 73 73 E 7 11 30.77 1042 2 3 N/A
11:15 am 11:15 Cloudy with Light Snow -1 -18.5 -8 -22 74 74 E 6 9 30.76 1042 3 4 N/A
11:35 am 11:35 Cloudy with Light Snow -1 -18.5 -8 -22.1 73 73 E 9 15 30.76 1042 2 3 N/A
11:55 am 11:55 Cloudy with Light Snow -1 -18.4 -8 -22 74 74 E 10 17 30.74 1041 2 2 N/A
12:15 pm 12:15 Cloudy with Light Snow -1 -18.4 -7 -21.9 74 74 ENE 10 17 30.74 1041 1 2 N/A
12:35 pm 12:35 Cloudy with Light Snow -1 -18.3 -7 -21.8 74 74 ENE 8 13 30.73 1041 1 2 N/A
12:55 pm 12:55 Cloudy with Light Snow -1 -18.2 -7 -21.5 76 76 ENE 9 15 30.72 1040 2 3 N/A
1:15 pm 13:15 Cloudy with Light Snow -1 -18.3 -7 -21.7 75 75 E 10 17 30.70 1040 2 2 N/A
1:35 pm 13:35 Cloudy with Light Snow -1 -18.1 -8 -22 72 72 ENE 10 17 30.68 1039 2 3 N/A
1:55 pm 13:55 Cloudy with Haze -1 -18.1 -9 -22.5 69 69 E 9 15 30.68 1039 3 5 N/A
2:15 pm 14:15 Cloudy with Haze -1 -18.1 -9 -22.5 69 69 ENE 8 13 30.66 1038 3 5 N/A
2:35 pm 14:35 Cloudy with Haze -1 -18.1 -8 -22.4 69 69 ENE 7 11 30.68 1039 4 6 N/A
2:55 pm 14:55 Cloudy with Haze N/A -8 -22.1 70 70 E 6 9 30.67 1039 4 6 N/A
3:15 pm 15:15 Cloudy with Haze N/A -8 -22.2 70 70 ENE 7 11 30.66 1038 4 6 N/A
3:35 pm 15:35 Cloudy N/A -8 -22.2 69 69 E 7 11 30.66 1038 10 16 N/A
3:55 pm 15:55 Cloudy N/A -8 -22.4 69 69 E 7 11 30.66 1038 10 16 N/A
4:15 pm 16:15 Cloudy -1 -18.1 -8 -22.3 70 70 ENE 6 9 30.66 1038 10 16 N/A
4:35 pm 16:35 Cloudy -1 -18.2 -8 -22.4 70 70 E 7 11 30.67 1038 10 16 N/A
4:55 pm 16:55 Cloudy -1 -18.2 -8 -22.2 71 71 E 8 13 30.66 1038 10 16 N/A
5:15 pm 17:15 Cloudy -1 -18.3 -8 -22.2 72 72 E 8 13 30.66 1038 10 16 N/A
5:35 pm 17:35 Cloudy -1 -18.4 -8 -22.1 73 73 ENE 7 11 30.66 1038 10 16 N/A
5:55 pm 17:55 Cloudy -1 -18.3 -8 -22.2 72 72 E 8 13 30.66 1038 10 16 N/A
6:15 pm 18:15 Cloudy -1 -18.5 -8 -22.1 73 73 ENE 8 13 30.66 1038 10 16 N/A
6:35 pm 18:35 Cloudy -1 -18.4 -8 -22 74 74 ENE 8 13 30.66 1038 10 16 N/A
6:55 pm 18:55 Cloudy -1 -18.5 -8 -22.4 72 72 ENE 9 15 30.66 1038 10 16 N/A
7:15 pm 19:15 Cloudy -1 -18.5 -8 -22.2 73 73 NE 10 17 30.67 1039 10 16 N/A
7:35 pm 19:35 Cloudy -1 -18.6 -8 -22.3 73 73 NE 10 17 30.67 1039 10 16 N/A
7:55 pm 19:55 Cloudy -1 -18.6 -8 -22.2 73 73 NE 9 15 30.67 1039 10 16 N/A
8:15 pm 20:15 Cloudy -2 -18.7 -8 -22.2 74 74 ENE 12 19 30.67 1039 10 16 N/A
8:35 pm 20:35 Cloudy with Light Snow -2 -18.8 -9 -22.5 73 73 ENE 9 15 30.67 1039 10 16 N/A
8:55 pm 20:55 Cloudy -2 -18.8 -8 -22.3 74 74 E 9 15 30.67 1039 10 16 N/A
9:15 pm 21:15 Cloudy -2 -18.9 -8 -22.2 75 75 ENE 8 13 30.67 1039 10 16 N/A
9:35 pm 21:35 Cloudy -2 -19 -8 -22.3 75 75 ENE 8 13 30.67 1039 10 16 N/A
9:55 pm 21:55 Cloudy -2 -19 -8 -22.4 75 75 ENE 7 11 30.68 1039 10 16 N/A
10:15 pm 22:15 Cloudy -2 -18.9 -8 -22.1 76 76 E 7 11 30.68 1039 10 16 N/A
10:35 pm 22:35 Cloudy -2 -19 -8 -22.3 75 75 ENE 9 15 30.67 1039 10 16 N/A
10:55 pm 22:55 Cloudy -2 -19 -8 -22.1 77 77 E 7 11 30.66 1038 7 11 N/A
11:15 pm 23:15 Cloudy -2 -19 -8 -22.1 77 77 E 7 11 30.66 1038 10 16 N/A
11:35 pm 23:35 Cloudy -2 -19 -8 -22.3 75 75 ENE 8 13 30.66 1038 10 16 N/A
11:55 pm 23:55 Cloudy -2 -19 -8 -22.1 77 77 ENE 6 9 30.66 1038 10 16 N/A

Powered by AerisWeather